W5IM Weather Reports


Display with metric or nautical units.
time (UTC)temp
F
wind
direction
speed
MPH
gust
MPH
rain 1hr
in
rain 24hr
in
rain mn
in
humidity
%
barometer
mb
20260904135010 85 173 7.0 12.0 0.00 0.00 0.00 78 1012.1
20260904134508 84 199 9.0 15.0 0.00 0.00 0.00 78 1012.0
20260904134009 84 193 5.0 10.0 0.00 0.00 0.00 80 1012.1
20260904133509 84 167 7.0 12.0 0.00 0.00 0.00 81 1012.1
20260904132509 83 171 5.0 10.0 0.00 0.00 0.00 82 1011.9
20260904132009 83 161 6.0 12.0 0.00 0.00 0.00 83 1011.9
20260904131509 82 154 6.0 10.0 0.00 0.00 0.00 85 1011.9
20260904130509 81 153 7.0 9.0 0.00 0.00 0.00 87 1011.8
20260904125510 81 141 6.0 8.0 0.00 0.00 0.00 88 1011.8
20260904125010 80 156 5.0 7.0 0.00 0.00 0.00 89 1011.9
20260904124508 80 149 5.0 7.0 0.00 0.00 0.00 90 1011.9
20260904123509 80 147 6.0 7.0 0.00 0.00 0.00 90 1011.9
20260904123009 80 157 5.0 7.0 0.00 0.00 0.00 90 1011.8
20260904122010 80 154 5.0 7.0 0.00 0.00 0.00 90 1011.7
20260904121509 80 146 5.0 7.0 0.00 0.00 0.00 90 1011.7
20260904121009 80 147 5.0 7.0 0.00 0.00 0.00 90 1011.6
20260904120509 80 147 5.0 7.0 0.00 0.00 0.00 90 1011.6
20260904120009 80 146 5.0 7.0 0.00 0.00 0.00 89 1011.6
20260904115509 80 152 5.0 8.0 0.00 0.00 0.00 90 1011.5
20260904115009 80 154 6.0 7.0 0.00 0.00 0.00 90 1011.5
20260904114509 80 151 5.0 7.0 0.00 0.00 0.00 89 1011.6
20260904114009 80 156 5.0 8.0 0.00 0.00 0.00 89 1011.6
20260904113508 80 152 5.0 8.0 0.00 0.00 0.00 89 1011.5
20260904112507 80 155 5.0 7.0 0.00 0.00 0.00 89 1011.5
20260904112008 80 148 6.0 7.0 0.00 0.00 0.00 89 1011.5
20260904111508 80 143 6.0 9.0 0.00 0.00 0.00 89 1011.6
20260904111007 80 148 6.0 9.0 0.00 0.00 0.00 89 1011.4
20260904110507 80 149 7.0 10.0 0.00 0.00 0.00 88 1011.4
20260904110007 80 163 6.0 9.0 0.00 0.00 0.00 88 1011.4
20260904105508 80 158 6.0 9.0 0.00 0.00 0.00 89 1011.3
20260904105008 80 148 7.0 9.0 0.00 0.00 0.00 89 1011.4
20260904104507 80 138 6.0 8.0 0.00 0.00 0.00 89 1011.4
20260904104008 80 139 5.0 8.0 0.00 0.00 0.00 88 1011.4
20260904103508 80 135 5.0 7.0 0.00 0.00 0.00 88 1011.4
20260904103007 81 145 5.0 7.0 0.00 0.00 0.00 88 1011.3
20260904102507 81 148 5.0 7.0 0.00 0.00 0.00 88 1011.3
20260904102008 81 158 5.0 8.0 0.00 0.00 0.00 89 1011.1
20260904101507 81 164 5.0 8.0 0.00 0.00 0.00 88 1011.1
20260904101007 81 163 5.0 7.0 0.00 0.00 0.00 88 1011.3
20260904100507 81 156 5.0 7.0 0.00 0.00 0.00 88 1011.2
20260904095507 81 164 4.0 7.0 0.00 0.00 0.00 89 1010.9
20260904095007 81 170 3.0 7.0 0.00 0.00 0.00 88 1010.9
20260904094507 81 154 6.0 8.0 0.00 0.00 0.00 89 1010.9
20260904094007 81 159 5.0 8.0 0.00 0.00 0.00 88 1010.9
20260904093008 81 169 5.0 8.0 0.00 0.00 0.00 88 1010.8
20260904092508 81 162 5.0 8.0 0.00 0.00 0.00 88 1010.8
20260904092008 81 156 6.0 8.0 0.00 0.00 0.00 88 1010.9
20260904091507 81 164 5.0 8.0 0.00 0.00 0.00 88 1011.0
20260904091007 81 161 5.0 8.0 0.00 0.00 0.00 88 1011.0
20260904090506 81 167 5.0 7.0 0.00 0.00 0.00 87 1011.0
20260904090007 81 182 4.0 7.0 0.00 0.00 0.00 87 1010.9
20260904085507 81 178 2.0 7.0 0.00 0.00 0.00 87 1011.0
20260904085008 81 167 3.0 6.0 0.00 0.00 0.00 87 1011.0
20260904084507 82 185 4.0 7.0 0.00 0.00 0.00 87 1011.1
20260904084007 82 182 3.0 7.0 0.00 0.00 0.00 87 1011.1
20260904083507 82 173 3.0 8.0 0.00 0.00 0.00 87 1011.0
20260904083007 82 180 5.0 8.0 0.00 0.00 0.00 87 1010.9
20260904082507 82 182 3.0 8.0 0.00 0.00 0.00 87 1011.0
20260904082007 82 196 5.0 8.0 0.00 0.00 0.00 87 1011.0
20260904081507 82 181 3.0 8.0 0.00 0.00 0.00 87 1011.0
20260904081007 82 189 5.0 7.0 0.00 0.00 0.00 87 1011.0
20260904080507 82 185 5.0 9.0 0.00 0.00 0.00 86 1010.9
20260904080007 82 172 5.0 9.0 0.00 0.00 0.00 86 1010.8
20260904075507 82 181 6.0 8.0 0.00 0.00 0.00 86 1010.9
20260904074507 82 188 6.0 9.0 0.00 0.00 0.00 86 1011.0
20260904074007 82 189 6.0 9.0 0.00 0.00 0.00 86 1011.0
20260904073507 82 187 5.0 8.0 0.00 0.00 0.00 86 1011.0
20260904073007 82 186 5.0 7.0 0.00 0.00 0.00 86 1011.1
20260904072007 82 180 4.0 8.0 0.00 0.00 0.00 86 1011.3
20260904071007 82 172 5.0 8.0 0.00 0.00 0.00 85 1011.6
20260904070507 82 177 3.0 7.0 0.00 0.00 0.00 85 1011.6
20260904070007 82 171 5.0 8.0 0.00 0.00 0.00 85 1011.5
20260904065507 82 187 6.0 10.0 0.00 0.00 0.00 85 1011.6
20260904065007 82 176 4.0 7.0 0.00 0.00 0.00 85 1011.7
20260904064507 82 194 5.0 6.0 0.00 0.00 0.00 84 1011.7
20260904064008 82 179 5.0 9.0 0.00 0.00 0.00 84 1011.6
20260904062507 83 176 5.0 8.0 0.00 0.00 0.00 84 1011.6
20260904061506 83 178 4.0 8.0 0.00 0.00 0.00 83 1011.7
20260904060507 83 185 5.0 9.0 0.00 0.00 0.00 83 1011.7
20260904060008 83 177 6.0 9.0 0.00 0.00 0.00 83 1011.9
20260904055507 83 166 6.0 9.0 0.00 0.00 0.00 82 1012.0
20260904054507 83 157 6.0 9.0 0.00 0.00 0.00 82 1012.0
20260904054007 83 161 5.0 12.0 0.00 0.00 0.00 82 1011.9
20260904053507 83 187 6.0 12.0 0.00 0.00 0.00 81 1011.8
20260904053007 83 166 6.0 9.0 0.00 0.00 0.00 81 1011.9
20260904052008 82 181 6.0 9.0 0.00 0.00 0.00 80 1011.8
20260904050508 82 169 6.0 12.0 0.00 0.00 0.00 80 1011.8
20260904050007 82 176 7.0 13.0 0.00 0.00 0.00 79 1011.8
20260904045507 83 169 6.0 13.0 0.00 0.00 0.00 79 1011.6
20260904044507 83 173 6.0 12.0 0.00 0.00 0.00 78 1011.6
20260904044007 83 173 8.0 12.0 0.00 0.00 0.00 78 1011.7
20260904043507 83 156 9.0 14.0 0.00 0.00 0.00 78 1011.8
20260904043007 83 160 10.0 16.0 0.00 0.00 0.00 78 1011.8
20260904042008 84 163 12.0 18.0 0.00 0.00 0.00 77 1011.7
20260904041507 84 163 9.0 18.0 0.00 0.00 0.00 77 1011.7
20260904041007 84 150 11.0 16.0 0.00 0.00 0.00 77 1011.8
20260904040507 83 162 10.0 18.0 0.00 0.00 0.00 76 1011.8
20260904035506 84 162 11.0 17.0 0.00 0.00 0.00 75 1011.8
20260904035008 84 171 9.0 15.0 0.00 0.00 0.00 75 1011.7
20260904034507 84 156 10.0 18.0 0.00 0.00 0.00 75 1011.7
20260904034007 84 155 12.0 22.0 0.00 0.00 0.00 76 1011.7
20260904033507 85 164 10.0 16.0 0.00 0.00 0.00 76 1011.6
20260904033008 85 161 9.0 16.0 0.00 0.00 0.00 75 1011.7
20260904032506 85 157 8.0 13.0 0.00 0.00 0.00 75 1011.7
20260904032007 85 161 10.0 16.0 0.00 0.00 0.00 75 1011.7
20260904031507 85 155 8.0 14.0 0.00 0.00 0.00 76 1011.8
20260904031010 85 155 11.0 17.0 0.00 0.00 0.00 76 1011.8
20260904030507 85 149 10.0 15.0 0.00 0.00 0.00 75 1011.6
20260904025506 85 165 9.0 13.0 0.00 0.00 0.00 74 1011.5
20260904025007 85 155 11.0 17.0 0.00 0.00 0.00 74 1011.5
20260904024507 85 155 10.0 14.0 0.00 0.00 0.00 74 1011.4
20260904024008 85 153 10.0 15.0 0.00 0.00 0.00 74 1011.3
20260904023506 85 150 12.0 17.0 0.00 0.00 0.00 73 1011.0
20260904023008 85 145 12.0 16.0 0.00 0.00 0.00 73 1010.9
20260904022507 85 156 10.0 16.0 0.00 0.00 0.00 73 1010.8
20260904022007 85 150 10.0 17.0 0.00 0.00 0.00 73 1010.8
20260904021007 86 153 9.0 16.0 0.00 0.00 0.00 71 1010.8
20260904020507 86 145 12.0 16.0 0.00 0.00 0.00 71 1010.8
20260904020006 86 153 11.0 16.0 0.00 0.00 0.00 72 1010.8
20260904015507 86 152 13.0 18.0 0.00 0.00 0.00 71 1010.6
20260904014507 86 156 11.0 18.0 0.00 0.00 0.00 71 1010.4
20260904014007 86 154 16.0 21.0 0.00 0.00 0.00 72 1010.3
20260904013507 85 141 17.0 23.0 0.00 0.00 0.00 72 1010.3
20260904013007 86 141 15.0 23.0 0.00 0.00 0.00 72 1010.3
20260904012506 86 139 16.0 23.0 0.00 0.00 0.00 71 1010.2
20260904012007 86 143 16.0 22.0 0.00 0.00 0.00 72 1010.3
20260904011507 86 145 13.0 21.0 0.00 0.00 0.00 72 1010.2
20260904011007 85 143 16.0 25.0 0.00 0.00 0.00 71 1010.1
20260904010008 82 144 16.0 24.0 0.00 0.00 0.00 67 1009.8
20260904005007 87 141 17.0 25.0 0.00 0.00 0.00 67 1009.7
20260904004507 87 144 15.0 25.0 0.00 0.00 0.00 66 1009.7
20260904004008 87 136 18.0 28.0 0.00 0.00 0.00 65 1009.6
20260904003507 88 144 17.0 26.0 0.00 0.00 0.00 63 1009.5
20260904003007 88 144 15.0 25.0 0.00 0.00 0.00 62 1009.6
20260904002506 89 142 15.0 23.0 0.00 0.00 0.00 61 1009.5
20260904002007 89 143 16.0 25.0 0.00 0.00 0.00 59 1009.5
20260904000506 90 153 14.0 23.0 0.00 0.00 0.00 55 1009.6
20260903235506 91 145 16.0 23.0 0.00 0.00 0.00 52 1009.4
20260903235007 91 137 17.0 25.0 0.00 0.00 0.00 52 1009.3
20260903234507 91 133 19.0 25.0 0.00 0.00 0.00 52 1009.4
20260903233507 91 127 17.0 25.0 0.00 0.00 0.00 51 1009.2
20260903233007 99 128 13.0 9.0 0.00 0.00 0.00 42 1009.0
20260903232507 99 128 13.0 9.0 0.00 0.00 0.00 42 1009.0
20260903232007 99 128 13.0 9.0 0.00 0.00 0.00 42 1009.0
20260903231007 99 128 13.0 9.0 0.00 0.00 0.00 42 1009.0
20260903230507 99 128 13.0 9.0 0.00 0.00 0.00 42 1009.0
20260903230006 99 128 13.0 9.0 0.00 0.00 0.00 42 1009.0
20260903225007 99 128 13.0 9.0 0.00 0.00 0.00 42 1009.0
20260903224506 99 128 13.0 9.0 0.00 0.00 0.00 42 1009.0
20260903224008 99 128 13.0 9.0 0.00 0.00 0.00 42 1009.0
20260903223509 99 128 13.0 9.0 0.00 0.00 0.00 42 1009.0
20260903223007 99 128 13.0 9.0 0.00 0.00 0.00 42 1009.0
20260903222506 99 128 13.0 9.0 0.00 0.00 0.00 42 1009.0
20260903221507 99 128 13.0 9.0 0.00 0.00 0.00 42 1009.0
20260903221007 99 128 13.0 9.0 0.00 0.00 0.00 42 1009.0
20260903220506 99 128 13.0 9.0 0.00 0.00 0.00 42 1009.0
20260903220007 99 128 13.0 9.0 0.00 0.00 0.00 42 1009.0
20260903215507 99 128 13.0 9.0 0.00 0.00 0.00 42 1009.0
20260903215008 99 128 13.0 9.0 0.00 0.00 0.00 42 1009.0
20260903214007 99 128 13.0 9.0 0.00 0.00 0.00 42 1009.0
20260903213507 99 128 13.0 9.0 0.00 0.00 0.00 42 1009.0
20260903213007 99 128 13.0 9.0 0.00 0.00 0.00 42 1009.0
20260903212510 99 128 13.0 9.0 0.00 0.00 0.00 42 1009.0
20260903212009 99 128 13.0 9.0 0.00 0.00 0.00 42 1009.0
20260903211506 99 128 13.0 9.0 0.00 0.00 0.00 42 1009.0
20260903211007 99 128 13.0 9.0 0.00 0.00 0.00 42 1009.0
20260903210506 99 128 13.0 9.0 0.00 0.00 0.00 42 1009.0
20260903210007 99 128 13.0 9.0 0.00 0.00 0.00 42 1009.0
20260903205506 99 128 13.0 9.0 0.00 0.00 0.00 42 1009.0
20260903205007 99 128 13.0 9.0 0.00 0.00 0.00 42 1009.0
20260903204506 99 128 13.0 10.0 0.00 0.00 0.00 42 1009.0
20260903204007 99 109 12.0 20.0 0.00 0.00 0.00 42 1009.0
20260903203506 99 140 8.0 18.0 0.00 0.00 0.00 43 1009.1
20260903202506 99 121 12.0 20.0 0.00 0.00 0.00 43 1009.2
20260903202007 98 142 10.0 15.0 0.00 0.00 0.00 43 1009.1
20260903201507 98 112 7.0 18.0 0.00 0.00 0.00 43 1009.2
20260903201007 98 125 10.0 21.0 0.00 0.00 0.00 44 1009.2
20260903200506 98 122 13.0 18.0 0.00 0.00 0.00 44 1009.2
20260903200006 99 132 10.0 15.0 0.00 0.00 0.00 43 1009.4
20260903195507 100 123 12.0 17.0 0.00 0.00 0.00 38 1009.4
20260903195007 98 176 8.0 15.0 0.00 0.00 0.00 36 1009.5
20260903194007 98 161 7.0 14.0 0.00 0.00 0.00 38 1009.5
20260903193506 98 201 6.0 14.0 0.00 0.00 0.00 38 1009.6
20260903193007 99 176 8.0 14.0 0.00 0.00 0.00 39 1009.6
20260903192007 99 209 7.0 14.0 0.00 0.00 0.00 38 1009.9
20260903191507 99 194 5.0 13.0 0.00 0.00 0.00 39 1010.0
20260903191007 98 195 9.0 15.0 0.00 0.00 0.00 39 1010.1
20260903190507 98 198 6.0 12.0 0.00 0.00 0.00 39 1010.2
20260903190006 98 206 2.0 8.0 0.00 0.00 0.00 40 1010.3
20260903185506 98 107 8.0 14.0 0.00 0.00 0.00 37 1010.4
20260903185007 98 143 12.0 17.0 0.00 0.00 0.00 40 1010.4
20260903184507 97 241 6.0 12.0 0.00 0.00 0.00 40 1010.4
20260903184007 98 187 4.0 9.0 0.00 0.00 0.00 40 1010.5
20260903182506 97 180 7.0 10.0 0.00 0.00 0.00 42 1010.9
20260903182007 97 139 10.0 14.0 0.00 0.00 0.00 42 1010.9
20260903181507 97 177 9.0 13.0 0.00 0.00 0.00 43 1011.0
20260903181006 97 205 5.0 14.0 0.00 0.00 0.00 43 1011.1
20260903180506 97 163 7.0 15.0 0.00 0.00 0.00 45 1011.2
20260903180006 97 140 10.0 15.0 0.00 0.00 0.00 43 1011.3
20260903175507 97 172 9.0 17.0 0.00 0.00 0.00 43 1011.4
20260903175006 97 139 9.0 16.0 0.00 0.00 0.00 45 1011.5
20260903174506 96 161 8.0 14.0 0.00 0.00 0.00 46 1011.7
20260903173006 95 213 6.0 12.0 0.00 0.00 0.00 48 1011.9
20260903172007 95 199 6.0 12.0 0.00 0.00 0.00 48 1012.0
20260903171507 95 191 8.0 17.0 0.00 0.00 0.00 48 1012.1
20260903171007 95 184 6.0 10.0 0.00 0.00 0.00 48 1012.0
20260903170507 95 183 7.0 13.0 0.00 0.00 0.00 48 1012.2
20260903170006 95 152 7.0 16.0 0.00 0.00 0.00 49 1012.2
20260903165506 94 136 12.0 16.0 0.00 0.00 0.00 49 1012.3
20260903164506 94 197 6.0 12.0 0.00 0.00 0.00 49 1012.3
20260903164007 94 180 7.0 13.0 0.00 0.00 0.00 51 1012.3
20260903163007 93 212 9.0 14.0 0.00 0.00 0.00 51 1012.4
20260903162507 93 216 7.0 13.0 0.00 0.00 0.00 51 1012.5
20260903162008 92 197 10.0 15.0 0.00 0.00 0.00 52 1012.5
20260903161507 92 188 8.0 17.0 0.00 0.00 0.00 53 1012.4
20260903161008 92 199 8.0 13.0 0.00 0.00 0.00 53 1012.4
20260903160508 91 201 9.0 14.0 0.00 0.00 0.00 54 1012.4
20260903160008 91 208 9.0 16.0 0.00 0.00 0.00 54 1012.4
20260903155507 91 192 10.0 16.0 0.00 0.00 0.00 54 1012.4
20260903155008 91 186 7.0 14.0 0.00 0.00 0.00 56 1012.3
20260903154008 91 187 7.0 12.0 0.00 0.00 0.00 58 1012.3
20260903153508 90 206 9.0 16.0 0.00 0.00 0.00 58 1012.3
20260903153008 89 212 11.0 17.0 0.00 0.00 0.00 60 1012.3
20260903152508 89 202 10.0 20.0 0.00 0.00 0.00 60 1012.3
20260903151508 89 187 10.0 16.0 0.00 0.00 0.00 62 1012.4
20260903151008 88 193 10.0 18.0 0.00 0.00 0.00 64 1012.3
20260903150507 88 220 10.0 18.0 0.00 0.00 0.00 64 1012.2
20260903145508 88 201 10.0 15.0 0.00 0.00 0.00 66 1012.3
20260903145008 88 195 10.0 15.0 0.00 0.00 0.00 67 1012.3
20260903144507 87 207 11.0 17.0 0.00 0.00 0.00 68 1012.4
20260903144008 87 200 12.0 21.0 0.00 0.00 0.00 69 1012.3
20260903143507 86 200 12.0 17.0 0.00 0.00 0.00 71 1012.4
20260903143008 86 198 10.0 15.0 0.00 0.00 0.00 74 1012.4
20260903142508 86 206 10.0 14.0 0.00 0.00 0.00 75 1012.5
20260903142008 86 200 9.0 15.0 0.00 0.00 0.00 77 1012.4
20260903141507 85 201 8.0 13.0 0.00 0.00 0.00 79 1012.4
20260903141008 85 193 10.0 16.0 0.00 0.00 0.00 79 1012.4
20260903140508 85 198 9.0 18.0 0.00 0.00 0.00 79 1012.4
20260903140008 85 180 6.0 14.0 0.00 0.00 0.00 80 1012.4